Time,TemperatureF,DewpointF,PressureIn,WindDirection,WindDirectionDegrees,WindSpeedMPH,WindSpeedGustMPH,Humidity,HourlyPrecipIn,Conditions,Clouds,dailyrainin,SoftwareType,DateUTC
2013-08-23 00:00:00,50.5,48.6,29.53,NE,36,1.0,1.0,93,0.00,,,0.00,Wunderground v.1.15,2013-08-23 08:00:00,
2013-08-23 00:10:00,49.9,48.2,29.53,NE,36,0.0,0.0,94,0.00,,,0.00,Wunderground v.1.15,2013-08-23 08:10:00,
2013-08-23 00:20:00,50.1,48.7,29.53,NE,37,0.0,0.0,95,0.00,,,0.00,Wunderground v.1.15,2013-08-23 08:20:00,
2013-08-23 00:30:00,50.1,48.4,29.54,NE,37,0.0,0.0,94,0.00,,,0.00,Wunderground v.1.15,2013-08-23 08:30:00,
2013-08-23 00:40:00,50.8,49.4,29.54,North,9,3.0,3.0,95,0.00,,,0.00,Wunderground v.1.15,2013-08-23 08:40:00,
2013-08-23 00:45:00,51.6,49.1,29.54,NE,37,5.0,5.0,91,0.00,,,0.00,Wunderground v.1.15,2013-08-23 08:45:00,
2013-08-23 00:55:00,51.7,49.2,29.54,NNE,25,5.0,5.0,91,0.00,,,0.00,Wunderground v.1.15,2013-08-23 08:55:00,
2013-08-23 01:05:00,49.6,46.8,29.55,South,176,3.0,5.0,90,0.00,,,0.00,Wunderground v.1.15,2013-08-23 09:05:00,
2013-08-23 01:15:00,48.9,47.5,29.57,South,176,1.0,3.0,95,0.00,,,0.00,Wunderground v.1.15,2013-08-23 09:15:00,
2013-08-23 01:25:00,49.5,48.7,29.57,South,172,1.0,2.0,97,0.00,,,0.00,Wunderground v.1.15,2013-08-23 09:25:00,
2013-08-23 01:30:00,49.8,49.0,29.58,South,170,1.0,1.0,97,0.00,,,0.00,Wunderground v.1.15,2013-08-23 09:30:00,
2013-08-23 01:40:00,50.4,49.0,29.58,SSE,162,0.0,0.0,95,0.00,,,0.00,Wunderground v.1.15,2013-08-23 09:40:00,
2013-08-23 01:50:00,51.1,49.4,29.59,SSE,162,1.0,3.0,94,0.00,,,0.00,Wunderground v.1.15,2013-08-23 09:50:00,
2013-08-23 02:00:00,51.0,49.0,29.59,North,6,4.0,6.0,93,0.00,,,0.00,Wunderground v.1.15,2013-08-23 10:00:00,
2013-08-23 02:10:00,51.7,48.9,29.59,ENE,71,5.0,5.0,90,0.00,,,0.00,Wunderground v.1.15,2013-08-23 10:10:00,
2013-08-23 02:15:00,52.2,48.4,29.60,ENE,66,4.0,5.0,87,0.00,,,0.00,Wunderground v.1.15,2013-08-23 10:15:00,
2013-08-23 02:25:00,51.7,48.3,29.60,ENE,66,1.0,3.0,88,0.00,,,0.00,Wunderground v.1.15,2013-08-23 10:25:00,
2013-08-23 02:30:00,51.3,48.2,29.60,ENE,66,2.0,3.0,89,0.00,,,0.00,Wunderground v.1.15,2013-08-23 10:30:00,
2013-08-23 02:40:00,50.4,47.6,29.60,ENE,66,0.0,0.0,90,0.00,,,0.00,Wunderground v.1.15,2013-08-23 10:40:00,
2013-08-23 02:45:00,50.4,47.6,29.61,ENE,66,0.0,0.0,90,0.00,,,0.00,Wunderground v.1.15,2013-08-23 10:45:00,
2013-08-23 02:55:00,49.1,46.6,29.61,NNE,26,4.0,4.0,91,0.00,,,0.00,Wunderground v.1.15,2013-08-23 10:55:00,
2013-08-23 03:00:00,48.5,46.0,29.62,NNE,26,2.0,2.0,91,0.00,,,0.00,Wunderground v.1.15,2013-08-23 11:00:00,
2013-08-23 03:10:00,49.2,46.4,29.62,NE,43,1.0,1.0,90,0.00,,,0.00,Wunderground v.1.15,2013-08-23 11:10:00,
2013-08-23 03:15:00,49.2,46.4,29.62,NE,43,1.0,1.0,90,0.00,,,0.00,Wunderground v.1.15,2013-08-23 11:15:00,
2013-08-23 03:25:00,48.6,45.8,29.62,NE,43,0.0,0.0,90,0.00,,,0.00,Wunderground v.1.15,2013-08-23 11:25:00,
2013-08-23 03:35:00,48.0,45.8,29.63,NE,43,0.0,2.0,92,0.00,,,0.00,Wunderground v.1.15,2013-08-23 11:35:00,
2013-08-23 03:40:00,48.2,45.7,29.63,NE,43,0.0,0.0,91,0.00,,,0.00,Wunderground v.1.15,2013-08-23 11:40:00,
2013-08-23 03:50:00,48.5,45.7,29.64,NE,43,0.0,0.0,90,0.00,,,0.00,Wunderground v.1.15,2013-08-23 11:50:00,
2013-08-23 04:00:00,49.2,46.1,29.64,NE,40,1.0,2.0,89,0.00,,,0.00,Wunderground v.1.15,2013-08-23 12:00:00,
2013-08-23 04:10:00,49.8,46.1,29.64,NNE,33,1.0,1.0,87,0.00,,,0.00,Wunderground v.1.15,2013-08-23 12:10:00,
2013-08-23 04:20:00,50.1,46.1,29.65,NNE,33,1.0,1.0,86,0.00,,,0.00,Wunderground v.1.15,2013-08-23 12:20:00,
2013-08-23 04:25:00,49.9,45.9,29.65,NE,37,1.0,3.0,86,0.00,,,0.00,Wunderground v.1.15,2013-08-23 12:25:00,
2013-08-23 04:35:00,50.2,45.6,29.65,ENE,67,2.0,2.0,84,0.00,,,0.00,Wunderground v.1.15,2013-08-23 12:35:00,
2013-08-23 04:45:00,49.9,45.6,29.65,ENE,67,1.0,4.0,85,0.00,,,0.00,Wunderground v.1.15,2013-08-23 12:45:00,
2013-08-23 04:55:00,49.2,45.5,29.65,ENE,67,2.0,3.0,87,0.00,,,0.00,Wunderground v.1.15,2013-08-23 12:55:00,
2013-08-23 05:05:00,49.4,45.7,29.66,East,88,3.0,6.0,87,0.00,,,0.00,Wunderground v.1.15,2013-08-23 13:05:00,
2013-08-23 05:15:00,49.4,45.7,29.66,ENE,68,3.0,3.0,87,0.00,,,0.00,Wunderground v.1.15,2013-08-23 13:15:00,
2013-08-23 05:20:00,49.2,45.8,29.66,ENE,66,2.0,3.0,88,0.00,,,0.00,Wunderground v.1.15,2013-08-23 13:20:00,
2013-08-23 05:30:00,48.5,45.4,29.67,NE,52,3.0,3.0,89,0.00,,,0.00,Wunderground v.1.15,2013-08-23 13:30:00,
2013-08-23 05:40:00,48.6,45.5,29.67,NE,52,1.0,1.0,89,0.00,,,0.00,Wunderground v.1.15,2013-08-23 13:40:00,
2013-08-23 05:45:00,48.6,45.2,29.67,NE,52,1.0,1.0,88,0.00,,,0.00,Wunderground v.1.15,2013-08-23 13:45:00,
2013-08-23 05:55:00,50.4,45.1,29.67,NE,43,3.0,6.0,82,0.00,,,0.00,Wunderground v.1.15,2013-08-23 13:55:00,
2013-08-23 06:05:00,51.3,45.3,29.67,NE,39,3.0,4.0,80,0.00,,,0.00,Wunderground v.1.15,2013-08-23 14:05:00,
2013-08-23 06:15:00,51.1,44.8,29.67,ENE,76,2.0,5.0,79,0.00,,,0.00,Wunderground v.1.15,2013-08-23 14:15:00,
2013-08-23 06:25:00,51.0,45.0,29.67,NE,54,1.0,1.0,80,0.00,,,0.00,Wunderground v.1.15,2013-08-23 14:25:00,
2013-08-23 06:30:00,50.5,44.9,29.67,NE,39,2.0,4.0,81,0.00,,,0.00,Wunderground v.1.15,2013-08-23 14:30:00,
2013-08-23 06:40:00,49.5,44.9,29.67,NNE,22,7.0,7.0,84,0.00,,,0.00,Wunderground v.1.15,2013-08-23 14:40:00,
2013-08-23 06:50:00,48.9,44.6,29.67,North,11,8.0,8.0,85,0.00,,,0.00,Wunderground v.1.15,2013-08-23 14:50:00,
2013-08-23 07:00:00,48.8,44.5,29.67,NNE,16,7.0,7.0,85,0.00,,,0.00,Wunderground v.1.15,2013-08-23 15:00:00,
2013-08-23 07:10:00,48.6,44.6,29.67,NNE,19,7.0,7.0,86,0.00,,,0.00,Wunderground v.1.15,2013-08-23 15:10:00,
2013-08-23 07:20:00,48.3,44.3,29.67,NNE,23,6.0,9.0,86,0.00,,,0.00,Wunderground v.1.15,2013-08-23 15:20:00,
2013-08-23 07:30:00,49.2,44.6,29.68,NNE,15,11.0,11.0,84,0.00,,,0.00,Wunderground v.1.15,2013-08-23 15:30:00,
2013-08-23 07:40:00,49.4,44.8,29.68,NNE,12,10.0,11.0,84,0.00,,,0.00,Wunderground v.1.15,2013-08-23 15:40:00,
2013-08-23 07:45:00,49.4,44.8,29.68,North,8,9.0,11.0,84,0.00,,,0.00,Wunderground v.1.15,2013-08-23 15:45:00,
2013-08-23 07:55:00,49.1,44.5,29.68,NNE,18,8.0,8.0,84,0.00,,,0.00,Wunderground v.1.15,2013-08-23 15:55:00,
2013-08-23 08:05:00,49.4,44.5,29.68,NNE,18,7.0,9.0,83,0.00,,,0.00,Wunderground v.1.15,2013-08-23 16:05:00,
2013-08-23 08:15:00,50.4,43.8,29.69,NNE,28,3.0,6.0,78,0.00,,,0.00,Wunderground v.1.15,2013-08-23 16:15:00,
2013-08-23 08:20:00,50.2,43.6,29.69,NE,47,4.0,4.0,78,0.00,,,0.00,Wunderground v.1.15,2013-08-23 16:20:00,
2013-08-23 08:30:00,49.4,43.8,29.69,NE,36,2.0,2.0,81,0.00,,,0.00,Wunderground v.1.15,2013-08-23 16:30:00,
2013-08-23 08:40:00,49.1,43.8,29.69,East,91,3.0,6.0,82,0.00,,,0.00,Wunderground v.1.15,2013-08-23 16:40:00,
2013-08-23 08:45:00,48.8,43.9,29.69,East,97,5.0,6.0,83,0.00,,,0.00,Wunderground v.1.15,2013-08-23 16:45:00,
2013-08-23 08:55:00,48.2,43.3,29.69,East,101,5.0,5.0,83,0.00,,,0.00,Wunderground v.1.15,2013-08-23 16:55:00,
2013-08-23 09:05:00,48.6,42.7,29.69,ENE,66,4.0,5.0,80,0.00,,,0.00,Wunderground v.1.15,2013-08-23 17:05:00,
2013-08-23 09:15:00,49.2,43.0,29.69,ENE,68,4.0,4.0,79,0.00,,,0.00,Wunderground v.1.15,2013-08-23 17:15:00,
2013-08-23 09:25:00,49.2,41.6,29.69,East,81,6.0,8.0,75,0.00,,,0.00,Wunderground v.1.15,2013-08-23 17:25:00,
2013-08-23 09:35:00,49.2,41.6,29.69,NE,44,7.0,9.0,75,0.00,,,0.00,Wunderground v.1.15,2013-08-23 17:35:00,
2013-08-23 09:40:00,49.5,41.9,29.69,ENE,57,6.0,11.0,75,0.00,,,0.00,Wunderground v.1.15,2013-08-23 17:40:00,
2013-08-23 09:50:00,50.2,42.2,29.69,ENE,57,7.0,7.0,74,0.00,,,0.00,Wunderground v.1.15,2013-08-23 17:50:00,
2013-08-23 10:00:00,50.4,42.4,29.70,ENE,73,4.0,6.0,74,0.00,,,0.00,Wunderground v.1.15,2013-08-23 18:00:00,
2013-08-23 10:05:00,50.4,42.4,29.70,East,80,5.0,6.0,74,0.00,,,0.00,Wunderground v.1.15,2013-08-23 18:05:00,
2013-08-23 10:15:00,50.4,42.1,29.71,NE,54,4.0,6.0,73,0.00,,,0.00,Wunderground v.1.15,2013-08-23 18:15:00,
2013-08-23 10:25:00,50.4,42.4,29.71,ENE,67,6.0,8.0,74,0.00,,,0.00,Wunderground v.1.15,2013-08-23 18:25:00,
2013-08-23 10:35:00,50.4,42.4,29.70,NE,54,6.0,9.0,74,0.00,,,0.00,Wunderground v.1.15,2013-08-23 18:35:00,
2013-08-23 10:45:00,50.8,42.8,29.71,NNE,16,4.0,10.0,74,0.00,,,0.00,Wunderground v.1.15,2013-08-23 18:45:00,
2013-08-23 10:55:00,51.4,42.3,29.71,NE,35,5.0,7.0,71,0.00,,,0.00,Wunderground v.1.15,2013-08-23 18:55:00,
2013-08-23 11:05:00,51.6,41.8,29.72,NNE,22,7.0,13.0,69,0.00,,,0.00,Wunderground v.1.15,2013-08-23 19:05:00,
2013-08-23 11:15:00,51.6,41.4,29.72,ENE,63,9.0,9.0,68,0.00,,,0.00,Wunderground v.1.15,2013-08-23 19:15:00,
2013-08-23 11:25:00,51.7,41.5,29.72,East,81,10.0,10.0,68,0.00,,,0.00,Wunderground v.1.15,2013-08-23 19:25:00,
2013-08-23 11:35:00,52.3,42.0,29.72,ENE,59,9.0,14.0,68,0.00,,,0.00,Wunderground v.1.15,2013-08-23 19:35:00,
2013-08-23 11:45:00,52.5,41.9,29.72,NE,49,8.0,9.0,67,0.00,,,0.00,Wunderground v.1.15,2013-08-23 19:45:00,
2013-08-23 11:55:00,52.6,41.2,29.72,NNE,28,9.0,9.0,65,0.00,,,0.00,Wunderground v.1.15,2013-08-23 19:55:00,
2013-08-23 12:05:00,52.8,41.4,29.72,ENE,77,8.0,12.0,65,0.00,,,0.00,Wunderground v.1.15,2013-08-23 20:05:00,
2013-08-23 12:15:00,53.5,42.0,29.72,ENE,64,8.0,10.0,65,0.00,,,0.00,Wunderground v.1.15,2013-08-23 20:15:00,
2013-08-23 12:25:00,54.1,40.5,29.72,NE,52,8.0,9.0,60,0.00,,,0.00,Wunderground v.1.15,2013-08-23 20:25:00,
2013-08-23 12:30:00,54.5,41.3,29.72,NE,47,8.0,8.0,61,0.00,,,0.00,Wunderground v.1.15,2013-08-23 20:30:00,
2013-08-23 12:40:00,55.3,43.3,29.72,NE,35,7.0,9.0,64,0.00,,,0.00,Wunderground v.1.15,2013-08-23 20:40:00,
2013-08-23 12:45:00,55.6,41.0,29.72,NNE,20,7.0,9.0,58,0.00,,,0.00,Wunderground v.1.15,2013-08-23 20:45:00,
2013-08-23 12:50:00,55.6,39.7,29.72,NNE,26,8.0,13.0,55,0.00,,,0.00,Wunderground v.1.15,2013-08-23 20:50:00,
2013-08-23 13:00:00,56.2,41.6,29.72,NE,42,9.0,9.0,58,0.00,,,0.00,Wunderground v.1.15,2013-08-23 21:00:00,
2013-08-23 13:10:00,56.5,40.5,29.72,NE,52,6.0,6.0,55,0.00,,,0.00,Wunderground v.1.15,2013-08-23 21:10:00,
2013-08-23 13:15:00,56.7,41.2,29.72,ENE,60,7.0,7.0,56,0.00,,,0.00,Wunderground v.1.15,2013-08-23 21:15:00,
2013-08-23 13:25:00,56.7,39.3,29.72,ENE,70,8.0,10.0,52,0.00,,,0.00,Wunderground v.1.15,2013-08-23 21:25:00,
2013-08-23 13:30:00,56.7,39.3,29.72,ENE,70,9.0,10.0,52,0.00,,,0.00,Wunderground v.1.15,2013-08-23 21:30:00,
2013-08-23 13:40:00,56.7,40.7,29.72,ENE,71,7.0,16.0,55,0.00,,,0.00,Wunderground v.1.15,2013-08-23 21:40:00,
2013-08-23 13:45:00,56.7,40.7,29.72,ENE,71,7.0,16.0,55,0.00,,,0.00,Wunderground v.1.15,2013-08-23 21:45:00,
2013-08-23 13:55:00,56.9,39.9,29.72,East,84,9.0,10.0,53,0.00,,,0.00,Wunderground v.1.15,2013-08-23 21:55:00,
2013-08-23 14:05:00,56.9,39.4,29.72,ENE,64,8.0,10.0,52,0.00,,,0.00,Wunderground v.1.15,2013-08-23 22:05:00,
2013-08-23 14:15:00,56.9,39.4,29.73,NE,56,9.0,10.0,52,0.00,,,0.00,Wunderground v.1.15,2013-08-23 22:15:00,
2013-08-23 14:25:00,56.9,39.9,29.73,ENE,66,10.0,14.0,53,0.00,,,0.00,Wunderground v.1.15,2013-08-23 22:25:00,
2013-08-23 14:30:00,56.9,39.9,29.73,ENE,63,11.0,11.0,53,0.00,,,0.00,Wunderground v.1.15,2013-08-23 22:30:00,
2013-08-23 14:40:00,57.0,39.5,29.73,ENE,66,9.0,9.0,52,0.00,,,0.00,Wunderground v.1.15,2013-08-23 22:40:00,
2013-08-23 14:45:00,57.0,39.0,29.73,ENE,57,9.0,9.0,51,0.00,,,0.00,Wunderground v.1.15,2013-08-23 22:45:00,
2013-08-23 14:55:00,57.8,40.3,29.73,NE,43,8.0,9.0,52,0.00,,,0.00,Wunderground v.1.15,2013-08-23 22:55:00,
2013-08-23 15:05:00,58.6,40.0,29.73,ENE,63,7.0,8.0,50,0.00,,,0.00,Wunderground v.1.15,2013-08-23 23:05:00,
2013-08-23 15:15:00,59.5,42.3,29.73,East,80,6.0,7.0,53,0.00,,,0.00,Wunderground v.1.15,2013-08-23 23:15:00,
2013-08-23 15:20:00,59.3,40.1,29.73,NNE,23,6.0,6.0,49,0.00,,,0.00,Wunderground v.1.15,2013-08-23 23:20:00,
2013-08-23 15:30:00,60.1,42.4,29.72,NNE,23,5.0,10.0,52,0.00,,,0.00,Wunderground v.1.15,2013-08-23 23:30:00,
2013-08-23 15:40:00,60.1,41.4,29.72,NNE,30,7.0,7.0,50,0.00,,,0.00,Wunderground v.1.15,2013-08-23 23:40:00,
2013-08-23 15:50:00,60.5,41.8,29.73,NNE,23,5.0,11.0,50,0.00,,,0.00,Wunderground v.1.15,2013-08-23 23:50:00,
2013-08-23 16:00:00,60.9,41.6,29.73,ENE,71,5.0,5.0,49,0.00,,,0.00,Wunderground v.1.15,2013-08-24 00:00:00,
2013-08-23 16:10:00,61.0,42.7,29.73,East,84,5.0,6.0,51,0.00,,,0.00,Wunderground v.1.15,2013-08-24 00:10:00,
2013-08-23 16:20:00,61.0,40.1,29.74,SE,139,5.0,5.0,46,0.00,,,0.00,Wunderground v.1.15,2013-08-24 00:20:00,
2013-08-23 16:30:00,61.0,38.9,29.74,SE,138,6.0,6.0,44,0.00,,,0.00,Wunderground v.1.15,2013-08-24 00:30:00,
2013-08-23 16:40:00,61.2,41.3,29.74,NNE,33,6.0,7.0,48,0.00,,,0.00,Wunderground v.1.15,2013-08-24 00:40:00,
2013-08-23 16:50:00,60.7,42.5,29.74,ENE,74,8.0,9.0,51,0.00,,,0.00,Wunderground v.1.15,2013-08-24 00:50:00,
2013-08-23 17:00:00,60.4,43.2,29.74,NE,46,6.0,6.0,53,0.00,,,0.00,Wunderground v.1.15,2013-08-24 01:00:00,
2013-08-23 17:10:00,60.9,43.6,29.74,East,81,6.0,7.0,53,0.00,,,0.00,Wunderground v.1.15,2013-08-24 01:10:00,
2013-08-23 17:20:00,60.5,40.7,29.75,NE,39,7.0,7.0,48,0.00,,,0.00,Wunderground v.1.15,2013-08-24 01:20:00,
2013-08-23 17:25:00,60.7,41.4,29.75,NE,37,5.0,7.0,49,0.00,,,0.00,Wunderground v.1.15,2013-08-24 01:25:00,
2013-08-23 17:35:00,60.2,42.0,29.75,ENE,60,6.0,6.0,51,0.00,,,0.00,Wunderground v.1.15,2013-08-24 01:35:00,
2013-08-23 17:45:00,60.5,41.8,29.75,ENE,60,5.0,6.0,50,0.00,,,0.00,Wunderground v.1.15,2013-08-24 01:45:00,
2013-08-23 17:55:00,60.4,41.1,29.75,NNE,20,5.0,14.0,49,0.00,,,0.00,Wunderground v.1.15,2013-08-24 01:55:00,
2013-08-23 18:05:00,60.7,43.5,29.75,NNE,20,6.0,11.0,53,0.00,,,0.00,Wunderground v.1.15,2013-08-24 02:05:00,
2013-08-23 18:15:00,60.7,42.5,29.75,NE,42,5.0,6.0,51,0.00,,,0.00,Wunderground v.1.15,2013-08-24 02:15:00,
2013-08-23 18:25:00,60.2,42.5,29.75,ENE,61,5.0,7.0,52,0.00,,,0.00,Wunderground v.1.15,2013-08-24 02:25:00,
2013-08-23 18:30:00,59.9,42.2,29.76,ENE,64,7.0,7.0,52,0.00,,,0.00,Wunderground v.1.15,2013-08-24 02:30:00,
2013-08-23 18:40:00,59.8,44.5,29.76,NNE,30,6.0,6.0,57,0.00,,,0.00,Wunderground v.1.15,2013-08-24 02:40:00,
2013-08-23 18:50:00,59.2,43.5,29.77,ESE,115,7.0,7.0,56,0.00,,,0.00,Wunderground v.1.15,2013-08-24 02:50:00,
2013-08-23 19:00:00,58.3,42.7,29.77,ENE,78,8.0,12.0,56,0.00,,,0.00,Wunderground v.1.15,2013-08-24 03:00:00,
2013-08-23 19:10:00,58.3,43.1,29.77,NE,52,7.0,7.0,57,0.00,,,0.00,Wunderground v.1.15,2013-08-24 03:10:00,
2013-08-23 19:20:00,57.2,43.0,29.77,ENE,73,8.0,12.0,59,0.00,,,0.00,Wunderground v.1.15,2013-08-24 03:20:00,
2013-08-23 19:30:00,56.3,42.1,29.78,NNE,20,8.0,8.0,59,0.00,,,0.00,Wunderground v.1.15,2013-08-24 03:30:00,
2013-08-23 19:40:00,56.2,42.5,29.78,ENE,63,7.0,7.0,60,0.00,,,0.00,Wunderground v.1.15,2013-08-24 03:40:00,
2013-08-23 19:45:00,55.9,42.6,29.78,NNE,13,8.0,8.0,61,0.00,,,0.00,Wunderground v.1.15,2013-08-24 03:45:00,
2013-08-23 19:50:00,55.7,42.5,29.78,NE,43,7.0,7.0,61,0.00,,,0.00,Wunderground v.1.15,2013-08-24 03:50:00,
2013-08-23 20:00:00,55.1,43.1,29.79,NE,56,6.0,6.0,64,0.00,,,0.00,Wunderground v.1.15,2013-08-24 04:00:00,
2013-08-23 20:05:00,55.1,42.7,29.79,NNE,29,6.0,6.0,63,0.00,,,0.00,Wunderground v.1.15,2013-08-24 04:05:00,
2013-08-23 20:10:00,54.5,41.7,29.79,ENE,74,7.0,10.0,62,0.00,,,0.00,Wunderground v.1.15,2013-08-24 04:10:00,
2013-08-23 20:20:00,54.2,42.3,29.78,ENE,78,7.0,7.0,64,0.00,,,0.00,Wunderground v.1.15,2013-08-24 04:20:00,
2013-08-23 20:25:00,54.2,42.3,29.78,NE,39,7.0,8.0,64,0.00,,,0.00,Wunderground v.1.15,2013-08-24 04:25:00,
2013-08-23 20:35:00,54.2,42.3,29.79,NNE,33,3.0,8.0,64,0.00,,,0.00,Wunderground v.1.15,2013-08-24 04:35:00,
2013-08-23 20:40:00,54.2,42.7,29.79,ENE,74,0.0,0.0,65,0.00,,,0.00,Wunderground v.1.15,2013-08-24 04:40:00,
2013-08-23 20:49:00,54.2,42.7,29.79,ENE,74,0.0,0.0,65,0.00,,,0.00,Wunderground v.1.15,2013-08-24 04:49:00,
2013-08-23 20:55:00,54.5,41.7,29.79,ENE,73,4.0,4.0,62,0.00,,,0.00,Wunderground v.1.15,2013-08-24 04:55:00,
2013-08-23 21:00:00,54.4,42.1,29.79,ESE,108,4.0,6.0,63,0.00,,,0.00,Wunderground v.1.15,2013-08-24 05:00:00,
2013-08-23 21:10:00,53.5,41.6,29.79,East,92,5.0,5.0,64,0.00,,,0.00,Wunderground v.1.15,2013-08-24 05:10:00,
2013-08-23 21:20:00,53.1,41.6,29.79,East,94,5.0,5.0,65,0.00,,,0.00,Wunderground v.1.15,2013-08-24 05:20:00,
2013-08-23 21:24:00,52.8,41.0,29.79,ESE,114,5.0,6.0,64,0.00,,,0.00,Wunderground v.1.15,2013-08-24 05:24:00,
2013-08-23 21:29:00,52.8,40.1,29.80,ESE,119,5.0,5.0,62,0.00,,,0.00,Wunderground v.1.15,2013-08-24 05:29:00,
2013-08-23 21:39:00,52.3,40.1,29.80,ESE,119,5.0,5.0,63,0.00,,,0.00,Wunderground v.1.15,2013-08-24 05:39:00,
2013-08-23 21:49:00,51.6,40.6,29.80,East,88,2.0,2.0,66,0.00,,,0.00,Wunderground v.1.15,2013-08-24 05:49:00,
2013-08-23 21:59:00,49.4,40.7,29.80,NNE,33,4.0,4.0,72,0.00,,,0.00,Wunderground v.1.15,2013-08-24 05:59:00,
2013-08-23 22:09:00,49.2,40.2,29.80,ENE,71,3.0,3.0,71,0.00,,,0.00,Wunderground v.1.15,2013-08-24 06:09:00,
2013-08-23 22:19:00,48.9,40.6,29.81,NE,49,2.0,3.0,73,0.00,,,0.00,Wunderground v.1.15,2013-08-24 06:19:00,
2013-08-23 22:25:00,48.5,39.9,29.81,NE,49,2.0,3.0,72,0.00,,,0.00,Wunderground v.1.15,2013-08-24 06:25:00,
2013-08-23 22:30:00,47.9,39.7,29.82,NE,52,1.0,3.0,73,0.00,,,0.00,Wunderground v.1.15,2013-08-24 06:30:00,
2013-08-23 22:40:00,45.8,39.0,29.82,NE,42,1.0,1.0,77,0.00,,,0.00,Wunderground v.1.15,2013-08-24 06:40:00,
2013-08-23 22:45:00,44.5,38.7,29.82,NE,42,1.0,1.0,80,0.00,,,0.00,Wunderground v.1.15,2013-08-24 06:45:00,
2013-08-23 22:55:00,43.6,38.8,29.82,NE,42,1.0,2.0,83,0.00,,,0.00,Wunderground v.1.15,2013-08-24 06:55:00,
2013-08-23 23:05:00,44.1,38.6,29.83,NE,44,1.0,1.0,81,0.00,,,0.00,Wunderground v.1.15,2013-08-24 07:05:00,
2013-08-23 23:15:00,43.5,38.4,29.83,NNE,18,1.0,5.0,82,0.00,,,0.00,Wunderground v.1.15,2013-08-24 07:15:00,
2013-08-23 23:25:00,43.9,38.4,29.83,NNE,18,1.0,2.0,81,0.00,,,0.00,Wunderground v.1.15,2013-08-24 07:25:00,
2013-08-23 23:30:00,42.9,38.1,29.84,NNE,25,1.0,2.0,83,0.00,,,0.00,Wunderground v.1.15,2013-08-24 07:30:00,
2013-08-23 23:40:00,41.6,38.3,29.84,NNE,22,1.0,2.0,88,0.00,,,0.00,Wunderground v.1.15,2013-08-24 07:40:00,
2013-08-23 23:45:00,41.2,37.0,29.84,NNE,22,1.0,2.0,85,0.00,,,0.00,Wunderground v.1.15,2013-08-24 07:45:00,
2013-08-23 23:55:00,40.8,36.9,29.84,NNE,22,0.0,1.0,86,0.00,,,0.00,Wunderground v.1.15,2013-08-24 07:55:00,